G7GQA-4 Weather Reports


time (UTC)temp
C
wind
direction
speed
KPH
gust
KPH
rain 1hr
cm
rain 24hr
cm
rain mn
cm
humidity
%
barometer
mb
20260507153028 15 264 0.0 3.2 0.00 0.00 0.00 49
20260507152028 15 260 1.6 4.8 0.00 0.00 0.00 49
20260507151028 15 258 1.6 3.2 0.00 0.00 0.00 48
20260507150028 15 228 1.6 4.8 0.00 0.00 0.00 47
20260507145028 15 261 1.6 4.8 0.00 0.00 0.00 47
20260507144028 15 127 1.6 6.4 0.00 0.00 0.00 47
20260507143028 15 217 0.0 3.2 0.00 0.00 0.00 46
20260507142027 15 109 1.6 6.4 0.00 0.00 0.00 46
20260507141027 16 240 1.6 4.8 0.00 0.00 0.00 46
20260507140027 16 261 1.6 4.8 0.00 0.00 0.00 46
20260507135027 16 187 1.6 3.2 0.00 0.00 0.00 44
20260507134027 16 241 1.6 4.8 0.00 0.00 0.00 41
20260507133027 16 110 1.6 4.8 0.00 0.00 0.00 41
20260507132027 17 231 1.6 4.8 0.00 0.00 0.00 41
20260507131027 17 141 3.2 6.4 0.00 0.00 0.00 40
20260507130027 17 244 3.2 6.4 0.00 0.00 0.00 38
20260507125027 17 231 1.6 6.4 0.00 0.00 0.00 39
20260507124027 16 290 1.6 3.2 0.00 0.00 0.00 41
20260507123027 16 108 3.2 8.0 0.00 0.00 0.00 41
20260507122027 16 144 3.2 6.4 0.00 0.00 0.00 43
20260507121027 15 128 1.6 6.4 0.00 0.00 0.00 46
20260507120027 16 180 3.2 8.0 0.00 0.00 0.00 47
20260507115027 16 219 1.6 4.8 0.00 0.00 0.00 46
20260507114028 16 240 1.6 6.4 0.00 0.00 0.00 48
20260507113027 16 254 1.6 6.4 0.00 0.00 0.00 51
20260507112027 15 108 1.6 4.8 0.00 0.00 0.00 54
20260507111027 14 107 1.6 3.2 0.00 0.00 0.00 58
20260507110027 14 125 3.2 6.4 0.00 0.00 0.00 59
20260507105027 14 286 1.6 9.7 0.00 0.00 0.00 62
20260507104027 13 134 3.2 9.7 0.00 0.00 0.00 66
20260507103027 12 138 1.6 4.8 0.00 0.00 0.00 66
20260507102027 12 43 1.6 4.8 0.00 0.00 0.00 66
20260507101027 12 262 1.6 6.4 0.00 0.00 0.00 67
20260507100027 12 122 1.6 3.2 0.00 0.00 0.00 68
20260507095027 11 245 1.6 6.4 0.00 0.00 0.00 71
20260507094027 11 5 3.2 9.7 0.00 0.00 0.00 73
20260507093027 11 83 1.6 4.8 0.00 0.00 0.00 74
20260507092027 10 187 1.6 6.4 0.00 0.00 0.00 75
20260507091027 10 129 1.6 6.4 0.00 0.00 0.00 78
20260507090027 10 73 1.6 4.8 0.00 0.00 0.00 78
20260507085027 9 154 1.6 6.4 0.00 0.00 0.00 80
20260507084027 9 270 1.6 3.2 0.00 0.00 0.00 81
20260507083027 8 266 1.6 6.4 0.00 0.00 0.00 83
20260507082027 8 98 3.2 6.4 0.00 0.00 0.00 83
20260507081028 8 148 1.6 3.2 0.00 0.00 0.00 84
20260507080027 8 217 1.6 3.2 0.00 0.00 0.00 84
20260507075027 7 67 3.2 6.4 0.00 0.00 0.00 85
20260507074027 7 114 3.2 6.4 0.00 0.00 0.00 85
20260507073027 7 33 1.6 4.8 0.00 0.00 0.00 87
20260507072027 7 104 1.6 3.2 0.00 0.00 0.00 88
20260507071027 7 246 1.6 6.4 0.00 0.00 0.00 88
20260507070027 7 111 3.2 8.0 0.00 0.00 0.00 88
20260507065027 7 101 3.2 8.0 0.00 0.00 0.00 89
20260507064027 7 124 3.2 4.8 0.00 0.00 0.00 89
20260507063027 6 116 1.6 3.2 0.00 0.00 0.00 89
20260507062027 6 96 1.6 4.8 0.00 0.00 0.00 89
20260507061027 6 150 1.6 6.4 0.00 0.00 0.00 90
20260507060027 6 182 1.6 6.4 0.00 0.00 0.00 90
20260507055027 6 138 1.6 3.2 0.00 0.00 0.00 90
20260507054027 6 206 1.6 3.2 0.00 0.00 0.00 90
20260507053027 6 132 1.6 3.2 0.00 0.00 0.00 90
20260507052027 6 137 1.6 4.8 0.00 0.00 0.00 90
20260507051027 6 137 1.6 3.2 0.00 0.00 0.00 91
20260507045527 5 138 1.6 3.2 0.00 0.00 0.00 91
20260507044527 5 132 0.0 3.2 0.00 0.00 0.00 91
20260507043527 5 132 0.0 3.2 0.00 0.00 0.00 91
20260507042527 5 132 0.0 1.6 0.00 0.00 0.00 91
20260507041527 5 132 0.0 1.6 0.00 0.00 0.00 91
20260507040527 5 108 0.0 3.2 0.00 0.00 0.00 92
20260507035527 5 108 0.0 3.2 0.00 0.00 0.00 92
20260507034527 5 108 1.6 4.8 0.00 0.00 0.00 92
20260507033527 5 103 1.6 3.2 0.00 0.00 0.00 92
20260507032527 5 114 0.0 3.2 0.00 0.00 0.00 92
20260507031527 5 114 0.0 3.2 0.00 0.00 0.00 92
20260507030527 5 114 0.0 3.2 0.00 0.00 0.00 92
20260507025527 5 114 0.0 3.2 0.00 0.00 0.00 92
20260507024527 5 114 1.6 4.8 0.00 0.00 0.00 92
20260507023527 5 84 0.0 1.6 0.00 0.00 0.00 91
20260507022528 5 84 0.0 3.2 0.00 0.00 0.00 91
20260507021540 5 84 0.0 3.2 0.00 0.00 0.00 91
20260507020527 5 318 0.0 3.2 0.00 0.00 0.00 91
20260507015527 5 318 0.0 3.2 0.00 0.00 0.00 91
20260507014527 5 318 0.0 3.2 0.00 0.00 0.00 90
20260507013528 5 318 0.0 3.2 0.00 0.00 0.00 90
20260507012527 5 33 1.6 6.4 0.00 0.00 0.00 90
20260507011527 5 96 0.0 3.2 0.00 0.00 0.00 90
20260507010527 6 96 0.0 3.2 0.00 0.00 0.00 90
20260507005527 6 96 1.6 3.2 0.00 0.00 0.00 89
20260507004527 6 96 0.0 3.2 0.00 0.00 0.00 89
20260507003527 6 96 1.6 3.2 0.00 0.00 0.00 89
20260507002527 6 96 0.0 3.2 0.00 0.00 0.00 89
20260507001527 5 96 1.6 3.2 0.00 0.00 0.00 89
20260507000527 6 96 0.0 3.2 0.00 0.00 0.00 89
20260506235527 6 90 0.0 3.2 0.00 0.00 0.00 89
20260506234527 6 90 0.0 3.2 0.00 0.00 0.00 89
20260506233527 6 90 0.0 3.2 0.00 0.00 0.00 88
20260506232527 6 84 0.0 3.2 0.00 0.00 0.00 88
20260506231527 6 84 1.6 6.4 0.00 0.00 0.00 88
20260506230527 6 84 0.0 3.2 0.00 0.00 0.00 87
20260506225527 6 84 0.0 3.2 0.00 0.00 0.00 87
20260506224527 6 82 1.6 3.2 0.00 0.00 0.00 87
20260506223527 6 78 1.6 4.8 0.00 0.00 0.00 86
20260506222527 6 14 0.0 3.2 0.00 0.00 0.00 86
20260506221527 6 108 1.6 4.8 0.00 0.00 0.00 86
20260506220527 6 108 0.0 3.2 0.00 0.00 0.00 86
20260506215527 7 108 1.6 3.2 0.00 0.00 0.00 85
20260506214527 7 107 1.6 8.0 0.00 0.00 0.00 84
20260506213527 7 84 1.6 4.8 0.00 0.00 0.00 83
20260506212527 7 137 1.6 4.8 0.00 0.00 0.00 82
20260506211527 7 156 1.6 4.8 0.00 0.00 0.00 81
20260506210527 7 156 1.6 3.2 0.00 0.00 0.00 80
20260506205527 7 156 1.6 4.8 0.00 0.00 0.00 79
20260506204527 8 156 1.6 3.2 0.00 0.00 0.00 78
20260506203527 8 144 3.2 9.7 0.00 0.00 0.00 77
20260506202527 8 117 3.2 6.4 0.00 0.00 0.00 76
20260506201527 8 141 3.2 6.4 0.00 0.00 0.00 75
20260506200527 8 100 3.2 8.0 0.00 0.00 0.00 74
20260506195527 9 148 1.6 4.8 0.00 0.00 0.00 74
20260506194527 9 139 1.6 6.4 0.00 0.00 0.00 73
20260506193527 9 150 1.6 4.8 0.00 0.00 0.00 71
20260506192527 10 150 1.6 6.4 0.00 0.00 0.00 68
20260506191527 10 138 3.2 9.7 0.00 0.00 0.00 64
20260506190527 11 134 3.2 8.0 0.00 0.00 0.00 61
20260506185527 11 99 3.2 6.4 0.00 0.00 0.00 60
20260506184527 11 124 3.2 8.0 0.00 0.00 0.00 59
20260506183527 11 138 3.2 6.4 0.00 0.00 0.00 57
20260506182532 12 150 1.6 4.8 0.00 0.00 0.00 52
20260506181540 12 139 1.6 6.4 0.00 0.00 0.00 50
20260506180527 12 75 1.6 4.8 0.00 0.00 0.00 50
20260506175527 12 318 1.6 6.4 0.00 0.00 0.00 48
20260506174527 12 166 3.2 8.0 0.00 0.00 0.00 49
20260506173527 12 105 3.2 6.4 0.00 0.00 0.00 49
20260506172527 13 341 3.2 6.4 0.00 0.00 0.00 48
20260506171527 13 82 1.6 6.4 0.00 0.00 0.00 47
20260506170527 13 322 3.2 6.4 0.00 0.00 0.00 47
20260506165527 12 111 3.2 6.4 0.00 0.00 0.00 47
20260506164527 13 48 3.2 8.0 0.00 0.00 0.00 45
20260506163527 13 315 3.2 6.4 0.00 0.00 0.00 44
20260506162527 12 290 1.6 6.4 0.00 0.00 0.00 48
20260506161527 12 300 3.2 8.0 0.00 0.00 0.00 48
20260506160527 12 316 1.6 4.8 0.00 0.00 0.00 48
20260506155527 13 332 3.2 6.4 0.00 0.00 0.00 47
20260506154527 13 357 6.4 12.9 0.00 0.00 0.00 45
20260506153527 13 100 3.2 8.0 0.00 0.00 0.00 44